START_TIME,STEP,MOV.,H8,t_acc.,H43,t_acc.,M25,t_acc.,H9,t_acc.
1979-07-06 06:00:30.190 ,0,1,1.,12.0,0.,12.0,0.,12.0,0.,12.0
1979-07-06 06:00:42.190 ,0,1,3.,12.0,0.,12.0,0.,12.0,0.,12.0
1979-07-06 06:00:54.190 ,4,1,1.,12.0,0.,12.0,0.,12.0,0.,12.0
1979-07-06 06:01:06.190 ,4,1,4.,12.0,0.,12.0,0.,12.0,0.,12.0
1979-07-06 06:01:18.190 ,7,1,2.,12.0,0.,12.0,0.,12.0,0.,12.0
1979-07-06 06:01:30.190 ,7,1,0.,12.0,0.,12.0,0.,12.0,0.,12.0
1979-07-06 06:01:42.190 ,3,1,2.,12.0,0.,12.0,0.,12.0,0.,12.0
1979-07-06 06:01:54.190 ,3,1,2.,12.0,0.,12.0,0.,12.0,0.,12.0
1979-07-06 06:02:06.190 ,0,1,3.,12.0,0.,12.0,0.,12.0,0.,12.0
1979-07-06 06:02:18.190 ,0,1,3.,12.0,0.,12.0,0.,12.0,0.,12.0
1979-07-06 06:02:30.190 ,4,1,5.,12.0,0.,12.0,0.,12.0,0.,12.0
1979-07-06 06:02:42.190 ,4,1,7.,12.0,0.,12.0,0.,12.0,0.,12.0
1979-07-06 06:02:54.190 ,7,1,3.,12.0,0.,12.0,0.,12.0,0.,12.0
1979-07-06 06:03:06.190 ,7,1,1.,12.0,0.,12.0,0.,12.0,0.,12.0
1979-07-06 06:03:18.190 ,3,1,2.,12.0,0.,12.0,0.,12.0,0.,12.0
1979-07-06 06:03:30.190 ,3,1,3.,12.0,0.,12.0,0.,12.0,0.,12.0
1979-07-06 06:03:42.190 ,0,1,2.,12.0,0.,12.0,0.,12.0,0.,12.0
1979-07-06 06:03:54.190 ,0,1,2.,12.0,0.,12.0,0.,12.0,0.,12.0
1979-07-06 06:04:06.190 ,4,1,3.,12.0,0.,12.0,0.,12.0,0.,12.0
1979-07-06 06:04:18.190 ,4,1,4.,12.0,0.,12.0,0.,12.0,0.,12.0
1979-07-06 06:04:30.190 ,7,1,2.,12.0,0.,12.0,0.,12.0,0.,12.0
1979-07-06 06:04:42.190 ,7,1,0.,12.0,0.,12.0,0.,12.0,0.,12.0
1979-07-06 06:04:54.190 ,3,1,3.,12.0,0.,12.0,0.,12.0,0.,12.0
1979-07-06 06:05:06.190 ,3,1,1.,12.0,0.,12.0,0.,12.0,0.,12.0
1979-07-06 06:05:18.190 ,0,1,0.,12.0,0.,12.0,0.,12.0,0.,12.0
1979-07-06 06:05:30.190 ,0,1,2.,12.0,0.,12.0,0.,12.0,0.,12.0
1979-07-06 06:05:42.190 ,0,0,2.,12.0,0.,12.0,0.,12.0,0.,12.0
1979-07-06 06:05:54.190 ,0,0,6.,12.0,0.,12.0,0.,12.0,0.,12.0
1979-07-06 06:06:06.190 ,0,0,3.,12.0,0.,12.0,0.,12.0,0.,12.0
1979-07-06 06:06:18.190 ,0,0,3.,12.0,0.,12.0,0.,12.0,0.,12.0
1979-07-06 06:06:34.390 ,0,0,1.,12.0,0.,12.0,0.,12.0,0.,12.0
1979-07-06 06:06:46.390 ,0,0,3.,12.0,0.,12.0,0.,12.0,0.,12.0
1979-07-06 06:06:54.190 ,0,0,2.,12.0,0.,12.0,0.,12.0,0.,12.0
1979-07-06 06:07:06.190 ,0,0,4.,12.0,0.,12.0,0.,12.0,0.,12.0
1979-07-06 06:07:18.190 ,4,0,2.,12.0,0.,12.0,0.,12.0,0.,12.0
1979-07-06 06:07:30.190 ,4,0,4.,12.0,0.,12.0,0.,12.0,0.,12.0
1979-07-06 06:07:42.190 ,4,0,0.,12.0,0.,12.0,0.,12.0,0.,12.0
1979-07-06 06:07:54.190 ,4,0,1.,12.0,0.,12.0,0.,12.0,0.,12.0
1979-07-06 06:08:06.190 ,3,0,0.,12.0,0.,12.0,0.,12.0,0.,12.0
1979-07-06 06:08:18.190 ,3,0,4.,12.0,0.,12.0,0.,12.0,0.,12.0
1979-07-06 06:08:30.190 ,3,0,0.,12.0,0.,12.0,0.,12.0,0.,12.0
1979-07-06 06:08:42.190 ,3,0,1.,12.0,0.,12.0,0.,12.0,0.,12.0
1979-07-06 06:08:54.190 ,2,0,2.,12.0,0.,12.0,0.,12.0,0.,12.0
1979-07-06 06:09:06.190 ,2,0,1.,12.0,0.,12.0,0.,12.0,0.,12.0
1979-07-06 06:09:18.190 ,2,0,2.,12.0,0.,12.0,0.,12.0,0.,12.0
1979-07-06 06:09:30.190 ,2,0,3.,12.0,0.,12.0,0.,12.0,0.,12.0
1979-07-06 06:09:42.190 ,1,0,3.,12.0,0.,12.0,0.,12.0,0.,12.0
1979-07-06 06:09:54.190 ,1,0,4.,12.0,0.,12.0,0.,12.0,0.,12.0
1979-07-06 06:10:06.190 ,1,0,1.,12.0,0.,12.0,0.,12.0,0.,12.0
1979-07-06 06:10:18.190 ,1,0,4.,12.0,0.,12.0,0.,12.0,0.,12.0
1979-07-06 06:10:30.190 ,0,0,1.,12.0,0.,12.0,0.,12.0,0.,12.0
1979-07-06 06:10:42.190 ,0,0,2.,12.0,0.,12.0,0.,12.0,0.,12.0
1979-07-06 06:10:54.190 ,0,0,1.,12.0,0.,12.0,0.,12.0,0.,12.0
1979-07-06 06:11:06.190 ,0,0,0.,12.0,0.,12.0,0.,12.0,0.,12.0
1979-07-06 06:11:18.190 ,0,0,0.,12.0,0.,12.0,0.,12.0,0.,12.0
1979-07-06 06:11:30.190 ,0,0,0.,12.0,0.,12.0,0.,12.0,0.,12.0
1979-07-06 06:11:42.190 ,0,0,2.,12.0,0.,12.0,0.,12.0,0.,12.0
1979-07-06 06:11:54.190 ,0,0,3.,12.0,0.,12.0,0.,12.0,0.,12.0
1979-07-06 06:12:06.190 ,1,0,3.,12.0,0.,12.0,0.,12.0,0.,12.0
1979-07-06 06:12:18.190 ,1,0,5.,12.0,0.,12.0,0.,12.0,0.,12.0
1979-07-06 06:12:30.190 ,1,0,2.,12.0,0.,12.0,0.,12.0,0.,12.0
1979-07-06 06:12:42.190 ,1,0,2.,12.0,0.,12.0,0.,12.0,0.,12.0
1979-07-06 06:12:54.190 ,2,0,1.,12.0,0.,12.0,0.,12.0,0.,12.0
1979-07-06 06:13:06.190 ,2,0,5.,12.0,0.,12.0,0.,12.0,0.,12.0
1979-07-06 06:13:18.190 ,2,0,0.,12.0,0.,12.0,0.,12.0,0.,12.0
1979-07-06 06:13:30.190 ,2,0,1.,12.0,1.,12.0,0.,12.0,0.,12.0
1979-07-06 06:13:42.190 ,3,0,1.,12.0,0.,12.0,0.,12.0,0.,12.0
1979-07-06 06:13:54.190 ,3,0,1.,12.0,0.,12.0,0.,12.0,0.,12.0
1979-07-06 06:14:06.190 ,3,0,6.,12.0,0.,12.0,0.,12.0,0.,12.0
1979-07-06 06:14:18.190 ,3,0,1.,12.0,0.,12.0,0.,12.0,0.,12.0
1979-07-06 06:14:30.190 ,4,0,1.,12.0,0.,12.0,0.,12.0,0.,12.0
1979-07-06 06:14:42.190 ,4,0,3.,12.0,0.,12.0,0.,12.0,0.,12.0
1979-07-06 06:14:54.190 ,4,0,2.,12.0,0.,12.0,0.,12.0,0.,12.0
1979-07-06 06:15:06.190 ,4,0,2.,12.0,0.,12.0,0.,12.0,0.,12.0
1979-07-06 06:15:18.190 ,5,0,4.,12.0,0.,12.0,0.,12.0,0.,12.0
1979-07-06 06:15:30.190 ,5,0,1.,12.0,0.,12.0,0.,12.0,0.,12.0
1979-07-06 06:15:42.190 ,5,0,2.,12.0,0.,12.0,0.,12.0,0.,12.0
1979-07-06 06:15:54.190 ,5,0,4.,12.0,0.,12.0,0.,12.0,0.,12.0
1979-07-06 06:16:06.190 ,6,0,3.,12.0,0.,12.0,0.,12.0,0.,12.0
1979-07-06 06:16:18.190 ,6,0,2.,12.0,0.,12.0,0.,12.0,0.,12.0
1979-07-06 06:16:30.190 ,6,0,1.,12.0,0.,12.0,0.,12.0,0.,12.0
1979-07-06 06:16:42.190 ,6,0,2.,12.0,0.,12.0,0.,12.0,0.,12.0
1979-07-06 06:16:54.190 ,7,0,4.,12.0,0.,12.0,0.,12.0,0.,12.0
1979-07-06 06:17:06.190 ,7,0,0.,12.0,0.,12.0,0.,12.0,0.,12.0
1979-07-06 06:17:18.190 ,7,0,0.,12.0,0.,12.0,0.,12.0,0.,12.0
1979-07-06 06:17:30.190 ,7,0,0.,12.0,0.,12.0,0.,12.0,0.,12.0
1979-07-06 06:17:42.190 ,7,0,0.,12.0,0.,12.0,0.,12.0,0.,12.0
1979-07-06 06:17:54.190 ,7,0,0.,12.0,0.,12.0,0.,12.0,0.,12.0
1979-07-06 06:18:06.190 ,7,0,0.,12.0,0.,12.0,0.,12.0,0.,12.0
1979-07-06 06:18:18.190 ,7,0,0.,12.0,0.,12.0,0.,12.0,0.,12.0
1979-07-06 06:18:30.190 ,6,0,0.,12.0,0.,12.0,0.,12.0,0.,12.0
1979-07-06 06:18:42.190 ,6,0,3.,12.0,0.,12.0,0.,12.0,0.,12.0
1979-07-06 06:18:54.190 ,6,0,2.,12.0,0.,12.0,0.,12.0,0.,12.0
1979-07-06 06:19:06.190 ,6,0,3.,12.0,0.,12.0,0.,12.0,0.,12.0
1979-07-06 06:19:18.190 ,5,0,1.,12.0,0.,12.0,0.,12.0,0.,12.0
1979-07-06 06:19:30.190 ,5,0,4.,12.0,0.,12.0,0.,12.0,0.,12.0
1979-07-06 06:19:42.190 ,5,0,1.,12.0,0.,12.0,0.,12.0,0.,12.0
1979-07-06 06:19:54.190 ,5,0,1.,12.0,0.,12.0,0.,12.0,0.,12.0
1979-07-06 06:20:06.190 ,4,0,2.,12.0,0.,12.0,0.,12.0,0.,12.0
1979-07-06 06:20:18.190 ,4,0,7.,12.0,0.,12.0,0.,12.0,0.,12.0
1979-07-06 06:20:30.190 ,4,0,3.,12.0,0.,12.0,0.,12.0,0.,12.0
1979-07-06 06:20:42.190 ,4,0,3.,12.0,0.,12.0,0.,12.0,0.,12.0
1979-07-06 06:20:54.190 ,3,0,5.,12.0,0.,12.0,0.,12.0,0.,12.0
1979-07-06 06:21:06.190 ,3,0,2.,12.0,0.,12.0,0.,12.0,0.,12.0
1979-07-06 06:21:18.190 ,3,0,5.,12.0,0.,12.0,0.,12.0,0.,12.0
1979-07-06 06:21:30.190 ,3,0,2.,12.0,0.,12.0,0.,12.0,0.,12.0
1979-07-06 06:21:42.190 ,2,0,0.,12.0,0.,12.0,0.,12.0,0.,12.0
1979-07-06 06:21:54.190 ,2,0,2.,12.0,0.,12.0,0.,12.0,0.,12.0
1979-07-06 06:22:06.190 ,2,0,1.,12.0,0.,12.0,0.,12.0,0.,12.0
1979-07-06 06:22:18.190 ,2,0,1.,12.0,0.,12.0,0.,12.0,0.,12.0
1979-07-06 06:22:30.190 ,1,0,2.,12.0,0.,12.0,0.,12.0,0.,12.0
1979-07-06 06:22:42.190 ,1,0,2.,12.0,0.,12.0,0.,12.0,0.,12.0
1979-07-06 06:22:54.190 ,1,0,1.,12.0,0.,12.0,0.,12.0,0.,12.0
1979-07-06 06:23:06.190 ,1,0,1.,12.0,0.,12.0,0.,12.0,0.,12.0
1979-07-06 06:23:18.190 ,0,0,1.,12.0,0.,12.0,0.,12.0,0.,12.0
1979-07-06 06:23:30.190 ,0,0,1.,12.0,0.,12.0,0.,12.0,0.,12.0
1979-07-06 06:23:42.190 ,0,0,0.,12.0,0.,12.0,0.,12.0,0.,12.0
1979-07-06 06:23:54.190 ,0,0,1.,12.0,0.,12.0,0.,12.0,0.,12.0
1979-07-06 06:24:06.190 ,0,0,0.,12.0,0.,12.0,0.,12.0,0.,12.0
1979-07-06 06:24:18.190 ,0,0,0.,12.0,0.,12.0,0.,12.0,0.,12.0
1979-07-06 06:24:30.190 ,0,0,2.,12.0,0.,12.0,0.,12.0,0.,12.0
1979-07-06 06:24:42.190 ,0,0,0.,12.0,0.,12.0,0.,12.0,0.,12.0
1979-07-06 06:24:54.190 ,1,0,1.,12.0,0.,12.0,0.,12.0,0.,12.0
1979-07-06 06:25:06.190 ,1,0,0.,12.0,0.,12.0,0.,12.0,0.,12.0
1979-07-06 06:25:18.190 ,1,0,1.,12.0,0.,12.0,0.,12.0,0.,12.0
1979-07-06 06:25:30.190 ,1,0,0.,12.0,0.,12.0,0.,12.0,0.,12.0
1979-07-06 06:25:42.190 ,2,0,1.,12.0,0.,12.0,0.,12.0,0.,12.0
1979-07-06 06:25:54.190 ,2,0,1.,12.0,0.,12.0,0.,12.0,0.,12.0
1979-07-06 06:26:06.190 ,2,0,0.,12.0,0.,12.0,0.,12.0,0.,12.0
1979-07-06 06:26:18.190 ,2,0,0.,12.0,0.,12.0,0.,12.0,0.,12.0
1979-07-06 06:26:30.190 ,3,0,2.,12.0,0.,12.0,0.,12.0,0.,12.0
1979-07-06 06:26:42.190 ,3,0,3.,12.0,0.,12.0,0.,12.0,0.,12.0
1979-07-06 06:26:54.190 ,3,0,2.,12.0,0.,12.0,0.,12.0,0.,12.0
1979-07-06 06:27:06.190 ,3,0,0.,12.0,0.,12.0,0.,12.0,0.,12.0
1979-07-06 06:27:18.190 ,4,0,0.,12.0,0.,12.0,0.,12.0,0.,12.0
1979-07-06 06:27:30.190 ,4,0,2.,12.0,0.,12.0,0.,12.0,0.,12.0
1979-07-06 06:27:42.190 ,4,0,6.,12.0,0.,12.0,0.,12.0,0.,12.0
1979-07-06 06:27:54.190 ,4,0,2.,12.0,0.,12.0,0.,12.0,0.,12.0
1979-07-06 06:28:06.190 ,5,0,1.,12.0,0.,12.0,0.,12.0,0.,12.0
1979-07-06 06:28:18.190 ,5,0,1.,12.0,0.,12.0,0.,12.0,0.,12.0
1979-07-06 06:28:30.190 ,5,0,0.,12.0,0.,12.0,0.,12.0,0.,12.0
1979-07-06 06:28:42.190 ,5,0,2.,12.0,0.,12.0,0.,12.0,0.,12.0
1979-07-06 06:28:54.190 ,6,0,0.,12.0,0.,12.0,0.,12.0,0.,12.0
1979-07-06 06:29:06.190 ,6,0,0.,12.0,0.,12.0,0.,12.0,0.,12.0
1979-07-06 06:29:18.190 ,6,0,0.,12.0,0.,12.0,0.,12.0,0.,12.0
1979-07-06 06:29:30.190 ,6,0,3.,12.0,0.,12.0,0.,12.0,0.,12.0
1979-07-06 06:29:42.190 ,7,0,1.,12.0,0.,12.0,0.,12.0,0.,12.0
1979-07-06 06:29:54.190 ,7,0,0.,12.0,0.,12.0,0.,12.0,0.,12.0
1979-07-06 06:30:06.190 ,7,0,0.,12.0,0.,12.0,0.,12.0,0.,12.0
1979-07-06 06:30:18.190 ,7,0,0.,12.0,0.,12.0,0.,12.0,0.,12.0
1979-07-06 06:30:30.190 ,7,0,0.,12.0,0.,12.0,0.,12.0,0.,12.0
1979-07-06 06:30:42.190 ,7,0,0.,12.0,0.,12.0,0.,12.0,0.,12.0
1979-07-06 06:30:54.190 ,7,0,0.,12.0,0.,12.0,0.,12.0,0.,12.0
1979-07-06 06:31:06.190 ,7,0,0.,12.0,0.,12.0,0.,12.0,0.,12.0
1979-07-06 06:31:18.190 ,6,0,0.,12.0,0.,12.0,0.,12.0,0.,12.0
1979-07-06 06:31:30.190 ,6,0,2.,12.0,0.,12.0,0.,12.0,0.,12.0
1979-07-06 06:31:42.190 ,6,0,1.,12.0,0.,12.0,0.,12.0,0.,12.0
1979-07-06 06:31:54.190 ,6,0,1.,12.0,0.,12.0,0.,12.0,0.,12.0
1979-07-06 06:32:06.190 ,5,0,5.,12.0,0.,12.0,0.,12.0,0.,12.0
1979-07-06 06:32:18.190 ,5,0,2.,12.0,0.,12.0,0.,12.0,0.,12.0
1979-07-06 06:32:30.190 ,5,0,3.,12.0,0.,12.0,0.,12.0,0.,12.0
1979-07-06 06:32:42.190 ,5,0,4.,12.0,0.,12.0,0.,12.0,0.,12.0
1979-07-06 06:32:54.190 ,4,0,5.,12.0,0.,12.0,0.,12.0,0.,12.0
1979-07-06 06:33:06.190 ,4,0,2.,12.0,0.,12.0,0.,12.0,0.,12.0
1979-07-06 06:33:18.190 ,4,0,1.,12.0,0.,12.0,0.,12.0,0.,12.0
1979-07-06 06:33:30.190 ,4,0,2.,12.0,0.,12.0,0.,12.0,0.,12.0
1979-07-06 06:33:42.190 ,3,0,2.,12.0,0.,12.0,0.,12.0,0.,12.0
1979-07-06 06:33:54.190 ,3,0,1.,12.0,0.,12.0,0.,12.0,0.,12.0
1979-07-06 06:34:06.190 ,3,0,0.,12.0,0.,12.0,0.,12.0,0.,12.0
1979-07-06 06:34:18.190 ,3,0,1.,12.0,0.,12.0,0.,12.0,0.,12.0
1979-07-06 06:34:30.190 ,2,0,2.,12.0,0.,12.0,0.,12.0,0.,12.0
1979-07-06 06:34:42.190 ,2,0,0.,12.0,0.,12.0,0.,12.0,0.,12.0
1979-07-06 06:34:54.190 ,2,0,1.,12.0,0.,12.0,0.,12.0,0.,12.0
1979-07-06 06:35:06.190 ,2,0,0.,12.0,0.,12.0,0.,12.0,0.,12.0
1979-07-06 06:35:18.190 ,1,0,2.,12.0,0.,12.0,0.,12.0,0.,12.0
1979-07-06 06:35:30.190 ,1,0,0.,12.0,0.,12.0,0.,12.0,0.,12.0
1979-07-06 06:35:42.190 ,1,0,0.,12.0,0.,12.0,0.,12.0,0.,12.0
1979-07-06 06:35:54.190 ,1,0,1.,12.0,0.,12.0,0.,12.0,0.,12.0
1979-07-06 06:36:06.190 ,0,0,1.,12.0,0.,12.0,0.,12.0,0.,12.0
1979-07-06 06:36:18.190 ,0,0,0.,12.0,0.,12.0,0.,12.0,0.,12.0
1979-07-06 06:36:30.190 ,0,0,2.,12.0,0.,12.0,0.,12.0,0.,12.0
1979-07-06 06:36:42.190 ,0,0,0.,12.0,0.,12.0,0.,12.0,0.,12.0
1979-07-06 06:36:54.190 ,0,0,1.,12.0,0.,12.0,0.,12.0,0.,12.0
1979-07-06 06:37:06.190 ,0,0,1.,12.0,0.,12.0,0.,12.0,0.,12.0
1979-07-06 06:37:18.190 ,0,0,0.,12.0,0.,12.0,0.,12.0,0.,12.0
1979-07-06 06:37:30.190 ,0,0,1.,12.0,0.,12.0,0.,12.0,0.,12.0
1979-07-06 06:37:42.190 ,1,0,0.,12.0,0.,12.0,0.,12.0,0.,12.0
1979-07-06 06:37:54.190 ,1,0,0.,12.0,0.,12.0,0.,12.0,0.,12.0
1979-07-06 06:38:06.190 ,1,0,0.,12.0,0.,12.0,0.,12.0,0.,12.0
1979-07-06 06:38:18.190 ,1,0,0.,12.0,0.,12.0,0.,12.0,0.,12.0
1979-07-06 06:38:30.190 ,2,0,0.,12.0,0.,12.0,0.,12.0,0.,12.0
1979-07-06 06:38:42.190 ,2,0,1.,12.0,0.,12.0,0.,12.0,0.,12.0
1979-07-06 06:38:54.190 ,2,0,3.,12.0,0.,12.0,0.,12.0,0.,12.0
1979-07-06 06:39:06.190 ,2,0,0.,12.0,0.,12.0,0.,12.0,0.,12.0
1979-07-06 06:39:18.190 ,3,0,1.,12.0,0.,12.0,0.,12.0,0.,12.0
1979-07-06 06:39:30.190 ,3,0,1.,12.0,0.,12.0,0.,12.0,0.,12.0
1979-07-06 06:39:42.190 ,3,0,0.,12.0,0.,12.0,0.,12.0,0.,12.0
1979-07-06 06:39:54.190 ,3,0,2.,12.0,0.,12.0,0.,12.0,0.,12.0
1979-07-06 06:40:06.190 ,4,0,1.,12.0,0.,12.0,0.,12.0,0.,12.0
1979-07-06 06:40:18.190 ,4,0,1.,12.0,0.,12.0,0.,12.0,0.,12.0
1979-07-06 06:40:30.190 ,4,0,2.,12.0,0.,12.0,0.,12.0,0.,12.0
1979-07-06 06:40:42.190 ,4,0,1.,12.0,0.,12.0,0.,12.0,0.,12.0
1979-07-06 06:40:54.190 ,5,0,4.,12.0,0.,12.0,0.,12.0,0.,12.0
1979-07-06 06:41:06.190 ,5,0,2.,12.0,0.,12.0,0.,12.0,0.,12.0
1979-07-06 06:41:18.190 ,5,0,1.,12.0,0.,12.0,0.,12.0,0.,12.0
1979-07-06 06:41:30.190 ,5,0,1.,12.0,0.,12.0,0.,12.0,0.,12.0
1979-07-06 06:41:42.190 ,6,0,0.,12.0,0.,12.0,0.,12.0,0.,12.0
1979-07-06 06:41:54.190 ,6,0,0.,12.0,0.,12.0,0.,12.0,0.,12.0
1979-07-06 06:42:06.190 ,6,0,0.,12.0,0.,12.0,0.,12.0,0.,12.0
1979-07-06 06:42:18.190 ,6,0,3.,12.0,0.,12.0,0.,12.0,0.,12.0
1979-07-06 06:42:30.190 ,7,0,1.,12.0,0.,12.0,0.,12.0,0.,12.0
1979-07-06 06:42:42.190 ,7,0,0.,12.0,0.,12.0,0.,12.0,0.,12.0
1979-07-06 06:42:54.190 ,7,0,0.,12.0,0.,12.0,0.,12.0,0.,12.0
1979-07-06 06:43:06.190 ,7,0,0.,12.0,0.,12.0,0.,12.0,0.,12.0
1979-07-06 06:43:18.190 ,3,1,1.,12.0,0.,12.0,0.,12.0,0.,12.0
1979-07-06 06:43:30.190 ,3,1,2.,12.0,0.,12.0,0.,12.0,0.,12.0
1979-07-06 06:43:42.190 ,0,1,0.,12.0,0.,12.0,0.,12.0,0.,12.0
1979-07-06 06:43:54.190 ,0,1,1.,12.0,0.,12.0,0.,12.0,0.,12.0
1979-07-06 06:44:30.190 ,7,1,0.,12.0,0.,12.0,0.,12.0,0.,12.0
1979-07-06 06:44:42.190 ,7,1,0.,12.0,0.,12.0,0.,12.0,0.,12.0
1979-07-06 06:44:54.190 ,3,1,0.,12.0,0.,12.0,0.,12.0,0.,12.0
1979-07-06 06:45:06.190 ,3,1,1.,12.0,0.,12.0,0.,12.0,0.,12.0
1979-07-06 06:45:18.190 ,0,1,0.,12.0,0.,12.0,0.,12.0,0.,12.0
1979-07-06 06:45:30.190 ,0,1,1.,12.0,0.,12.0,0.,12.0,0.,12.0
1979-07-06 06:45:42.190 ,4,1,2.,12.0,0.,12.0,0.,12.0,0.,12.0
1979-07-06 06:45:54.190 ,4,1,1.,12.0,0.,12.0,0.,12.0,0.,12.0
1979-07-06 06:46:06.190 ,7,1,4.,12.0,0.,12.0,0.,12.0,0.,12.0
1979-07-06 06:46:18.190 ,7,1,0.,12.0,0.,12.0,0.,12.0,0.,12.0
1979-07-06 06:46:30.190 ,3,1,1.,12.0,0.,12.0,0.,12.0,0.,12.0
1979-07-06 06:46:42.190 ,3,1,1.,12.0,0.,12.0,0.,12.0,0.,12.0
1979-07-06 06:46:54.190 ,0,1,1.,12.0,0.,12.0,0.,12.0,0.,12.0
1979-07-06 06:47:06.190 ,0,1,1.,12.0,0.,12.0,0.,12.0,0.,12.0
1979-07-06 06:47:18.190 ,4,1,1.,12.0,0.,12.0,0.,12.0,0.,12.0
1979-07-06 06:47:30.190 ,4,1,0.,12.0,0.,12.0,0.,12.0,0.,12.0
1979-07-06 06:47:42.190 ,7,1,0.,12.0,0.,12.0,0.,12.0,0.,12.0
1979-07-06 06:47:54.190 ,7,1,1.,12.0,0.,12.0,0.,12.0,0.,12.0
1979-07-06 06:48:06.190 ,3,1,0.,12.0,0.,12.0,0.,12.0,0.,12.0
1979-07-06 06:48:18.190 ,3,1,0.,12.0,1.,12.0,0.,12.0,0.,12.0
1979-07-06 06:48:30.190 ,0,1,1.,12.0,0.,12.0,0.,12.0,0.,12.0
1979-07-06 06:48:42.190 ,0,1,1.,12.0,0.,12.0,0.,12.0,0.,12.0
1979-07-06 06:48:54.190 ,4,1,0.,12.0,0.,12.0,0.,12.0,0.,12.0
1979-07-06 06:49:06.190 ,4,1,1.,12.0,0.,12.0,0.,12.0,0.,12.0
1979-07-06 06:49:18.190 ,7,1,2.,12.0,0.,12.0,0.,12.0,0.,12.0
1979-07-06 06:49:30.190 ,7,1,0.,12.0,0.,12.0,0.,12.0,0.,12.0
1979-07-06 06:49:42.190 ,3,1,0.,12.0,0.,12.0,0.,12.0,0.,12.0
1979-07-06 06:49:54.190 ,3,1,1.,12.0,0.,12.0,0.,12.0,0.,12.0
1979-07-06 06:50:06.190 ,0,1,1.,12.0,0.,12.0,0.,12.0,0.,12.0
1979-07-06 06:50:18.190 ,0,1,0.,12.0,0.,12.0,0.,12.0,0.,12.0
1979-07-06 06:50:30.190 ,4,1,0.,12.0,0.,12.0,0.,12.0,0.,12.0
1979-07-06 06:50:42.190 ,4,1,2.,12.0,0.,12.0,0.,12.0,0.,12.0
1979-07-06 06:50:54.190 ,7,1,0.,12.0,0.,12.0,0.,12.0,0.,12.0
1979-07-06 06:51:06.190 ,7,1,1.,12.0,0.,12.0,0.,12.0,0.,12.0
1979-07-06 06:51:18.190 ,3,1,0.,12.0,0.,12.0,0.,12.0,0.,12.0
1979-07-06 06:51:30.190 ,3,1,1.,12.0,0.,12.0,0.,12.0,0.,12.0
1979-07-06 06:51:42.190 ,0,1,0.,12.0,0.,12.0,0.,12.0,0.,12.0
1979-07-06 06:51:54.190 ,0,1,2.,12.0,0.,12.0,0.,12.0,0.,12.0
1979-07-06 06:52:06.190 ,4,1,1.,12.0,0.,12.0,0.,12.0,0.,12.0
1979-07-06 06:52:18.190 ,4,1,1.,12.0,0.,12.0,0.,12.0,0.,12.0
1979-07-06 06:52:30.190 ,7,1,4.,12.0,0.,12.0,0.,12.0,0.,12.0
1979-07-06 06:52:42.190 ,7,1,0.,12.0,0.,12.0,0.,12.0,0.,12.0
1979-07-06 06:52:54.190 ,3,1,1.,12.0,0.,12.0,0.,12.0,0.,12.0
1979-07-06 06:53:06.190 ,3,1,0.,12.0,0.,12.0,0.,12.0,0.,12.0
1979-07-06 06:53:18.190 ,0,1,1.,12.0,0.,12.0,0.,12.0,0.,12.0
1979-07-06 06:53:30.190 ,0,1,2.,12.0,0.,12.0,0.,12.0,0.,12.0
1979-07-06 06:53:42.190 ,0,0,0.,12.0,0.,12.0,0.,12.0,0.,12.0
1979-07-06 06:53:54.190 ,0,0,0.,12.0,0.,12.0,0.,12.0,0.,12.0
1979-07-06 06:54:06.190 ,0,0,3.,12.0,0.,12.0,0.,12.0,0.,12.0
1979-07-06 06:54:18.190 ,0,0,1.,12.0,0.,12.0,0.,12.0,0.,12.0
1979-07-06 06:54:30.190 ,5,0,2.,12.0,0.,12.0,0.,12.0,0.,12.0
1979-07-06 06:54:42.190 ,5,0,0.,12.0,0.,12.0,0.,12.0,0.,12.0
1979-07-06 06:54:54.190 ,5,0,4.,12.0,0.,12.0,0.,12.0,0.,12.0
1979-07-06 06:55:06.190 ,5,0,1.,12.0,0.,12.0,0.,12.0,0.,12.0
1979-07-06 06:55:18.190 ,4,0,0.,12.0,0.,12.0,0.,12.0,0.,12.0
1979-07-06 06:55:30.190 ,4,0,4.,12.0,0.,12.0,0.,12.0,0.,12.0
1979-07-06 06:55:42.190 ,4,0,1.,12.0,0.,12.0,0.,12.0,0.,12.0
1979-07-06 06:55:54.190 ,4,0,1.,12.0,0.,12.0,0.,12.0,0.,12.0
1979-07-06 06:56:06.190 ,3,0,3.,12.0,0.,12.0,0.,12.0,0.,12.0
1979-07-06 06:56:18.190 ,3,0,2.,12.0,0.,12.0,0.,12.0,0.,12.0
1979-07-06 06:56:30.190 ,3,0,0.,12.0,0.,12.0,0.,12.0,0.,12.0
1979-07-06 06:56:42.190 ,3,0,1.,12.0,0.,12.0,0.,12.0,0.,12.0
1979-07-06 06:56:54.190 ,2,0,0.,12.0,0.,12.0,0.,12.0,0.,12.0
1979-07-06 06:57:06.190 ,2,0,1.,12.0,0.,12.0,0.,12.0,0.,12.0
1979-07-06 06:57:18.190 ,2,0,0.,12.0,0.,12.0,0.,12.0,0.,12.0
1979-07-06 06:57:30.190 ,2,0,1.,12.0,0.,12.0,0.,12.0,0.,12.0
1979-07-06 06:57:42.190 ,1,0,4.,12.0,0.,12.0,0.,12.0,0.,12.0
1979-07-06 06:57:54.190 ,1,0,1.,12.0,0.,12.0,0.,12.0,0.,12.0
1979-07-06 06:58:06.190 ,1,0,1.,12.0,0.,12.0,0.,12.0,0.,12.0
1979-07-06 06:58:18.190 ,1,0,0.,12.0,0.,12.0,0.,12.0,0.,12.0
1979-07-06 06:58:30.190 ,0,0,1.,12.0,0.,12.0,0.,12.0,0.,12.0
1979-07-06 06:58:42.190 ,0,0,1.,12.0,0.,12.0,0.,12.0,0.,12.0
1979-07-06 06:58:54.190 ,0,0,2.,12.0,0.,12.0,0.,12.0,0.,12.0
1979-07-06 06:59:06.190 ,0,0,1.,12.0,0.,12.0,0.,12.0,0.,12.0
1979-07-06 06:59:18.190 ,0,0,3.,12.0,0.,12.0,0.,12.0,0.,12.0
1979-07-06 06:59:30.190 ,0,0,4.,12.0,0.,12.0,0.,12.0,0.,12.0
1979-07-06 06:59:42.190 ,0,0,1.,12.0,0.,12.0,0.,12.0,0.,12.0
1979-07-06 06:59:54.190 ,0,0,1.,12.0,0.,12.0,0.,12.0,0.,12.0
1979-07-06 07:00:06.190 ,1,0,0.,12.0,0.,12.0,0.,12.0,0.,12.0
1979-07-06 07:00:18.190 ,1,0,1.,12.0,0.,12.0,0.,12.0,0.,12.0
1979-07-06 07:00:30.190 ,1,0,0.,12.0,0.,12.0,0.,12.0,0.,12.0
1979-07-06 07:00:42.190 ,1,0,2.,12.0,0.,12.0,0.,12.0,0.,12.0
1979-07-06 07:00:54.190 ,2,0,0.,12.0,0.,12.0,0.,12.0,0.,12.0
1979-07-06 07:01:06.190 ,2,0,1.,12.0,0.,12.0,0.,12.0,0.,12.0
1979-07-06 07:01:18.190 ,2,0,1.,12.0,0.,12.0,0.,12.0,0.,12.0
1979-07-06 07:01:30.190 ,2,0,1.,12.0,0.,12.0,0.,12.0,0.,12.0
1979-07-06 07:01:42.190 ,3,0,0.,12.0,0.,12.0,0.,12.0,0.,12.0
1979-07-06 07:01:54.190 ,3,0,2.,12.0,0.,12.0,0.,12.0,0.,12.0
1979-07-06 07:02:06.190 ,3,0,1.,12.0,0.,12.0,0.,12.0,0.,12.0
1979-07-06 07:02:18.190 ,3,0,1.,12.0,0.,12.0,0.,12.0,0.,12.0
1979-07-06 07:02:30.190 ,4,0,0.,12.0,0.,12.0,0.,12.0,0.,12.0
1979-07-06 07:02:42.190 ,4,0,4.,12.0,0.,12.0,0.,12.0,0.,12.0
1979-07-06 07:02:54.190 ,4,0,1.,12.0,0.,12.0,0.,12.0,0.,12.0
1979-07-06 07:03:06.190 ,4,0,2.,12.0,0.,12.0,0.,12.0,0.,12.0
1979-07-06 07:03:18.190 ,5,0,1.,12.0,0.,12.0,0.,12.0,0.,12.0
1979-07-06 07:03:30.190 ,5,0,3.,12.0,0.,12.0,0.,12.0,0.,12.0
1979-07-06 07:03:42.190 ,5,0,4.,12.0,0.,12.0,0.,12.0,0.,12.0
1979-07-06 07:03:54.190 ,5,0,2.,12.0,0.,12.0,0.,12.0,0.,12.0
1979-07-06 07:04:06.190 ,6,0,1.,12.0,0.,12.0,0.,12.0,0.,12.0
1979-07-06 07:04:18.190 ,6,0,2.,12.0,0.,12.0,0.,12.0,0.,12.0
1979-07-06 07:04:30.190 ,6,0,1.,12.0,0.,12.0,0.,12.0,0.,12.0
1979-07-06 07:04:42.190 ,6,0,3.,12.0,0.,12.0,0.,12.0,0.,12.0
1979-07-06 07:04:54.190 ,7,0,2.,12.0,0.,12.0,0.,12.0,0.,12.0
1979-07-06 07:05:06.190 ,7,0,0.,12.0,0.,12.0,0.,12.0,0.,12.0
1979-07-06 07:05:18.190 ,7,0,0.,12.0,0.,12.0,0.,12.0,0.,12.0
1979-07-06 07:05:30.190 ,7,0,0.,12.0,0.,12.0,0.,12.0,0.,12.0
1979-07-06 07:05:42.190 ,7,0,0.,12.0,0.,12.0,0.,12.0,0.,12.0
1979-07-06 07:05:54.190 ,7,0,0.,12.0,0.,12.0,0.,12.0,0.,12.0
1979-07-06 07:06:06.190 ,7,0,0.,12.0,0.,12.0,0.,12.0,0.,12.0
1979-07-06 07:06:18.190 ,7,0,0.,12.0,0.,12.0,0.,12.0,0.,12.0
1979-07-06 07:06:30.190 ,6,0,0.,12.0,0.,12.0,0.,12.0,0.,12.0
1979-07-06 07:06:42.190 ,6,0,3.,12.0,0.,12.0,0.,12.0,0.,12.0
1979-07-06 07:06:54.190 ,6,0,1.,12.0,0.,12.0,0.,12.0,0.,12.0
1979-07-06 07:07:06.190 ,6,0,4.,12.0,0.,12.0,0.,12.0,0.,12.0
1979-07-06 07:07:18.190 ,5,0,2.,12.0,0.,12.0,0.,12.0,0.,12.0
1979-07-06 07:07:30.190 ,5,0,1.,12.0,0.,12.0,0.,12.0,0.,12.0
1979-07-06 07:07:42.190 ,5,0,1.,12.0,0.,12.0,0.,12.0,0.,12.0
1979-07-06 07:07:54.190 ,5,0,3.,12.0,0.,12.0,0.,12.0,0.,12.0
1979-07-06 07:08:06.190 ,4,0,2.,12.0,0.,12.0,0.,12.0,0.,12.0
1979-07-06 07:08:18.190 ,4,0,2.,12.0,0.,12.0,0.,12.0,0.,12.0
1979-07-06 07:08:30.190 ,4,0,1.,12.0,0.,12.0,0.,12.0,0.,12.0
1979-07-06 07:08:42.190 ,4,0,2.,12.0,0.,12.0,0.,12.0,0.,12.0
1979-07-06 07:08:54.190 ,3,0,0.,12.0,0.,12.0,0.,12.0,0.,12.0
1979-07-06 07:09:06.190 ,3,0,1.,12.0,0.,12.0,0.,12.0,0.,12.0
1979-07-06 07:09:18.190 ,3,0,0.,12.0,0.,12.0,0.,12.0,0.,12.0
1979-07-06 07:09:30.190 ,3,0,2.,12.0,1.,12.0,0.,12.0,0.,12.0
1979-07-06 07:09:42.190 ,2,0,1.,12.0,0.,12.0,0.,12.0,0.,12.0
1979-07-06 07:09:54.190 ,2,0,1.,12.0,0.,12.0,0.,12.0,0.,12.0
1979-07-06 07:10:06.190 ,2,0,2.,12.0,0.,12.0,0.,12.0,0.,12.0
1979-07-06 07:10:18.190 ,2,0,0.,12.0,0.,12.0,0.,12.0,0.,12.0
1979-07-06 07:10:30.190 ,1,0,0.,12.0,0.,12.0,0.,12.0,0.,12.0
1979-07-06 07:10:42.190 ,1,0,1.,12.0,0.,12.0,0.,12.0,0.,12.0
1979-07-06 07:10:54.190 ,1,0,1.,12.0,0.,12.0,0.,12.0,0.,12.0
1979-07-06 07:11:06.190 ,1,0,1.,12.0,0.,12.0,0.,12.0,0.,12.0
1979-07-06 07:11:18.190 ,0,0,1.,12.0,0.,12.0,0.,12.0,0.,12.0
1979-07-06 07:11:30.190 ,0,0,0.,12.0,0.,12.0,0.,12.0,0.,12.0
1979-07-06 07:11:42.190 ,0,0,0.,12.0,0.,12.0,0.,12.0,0.,12.0
1979-07-06 07:11:54.190 ,0,0,0.,12.0,0.,12.0,0.,12.0,0.,12.0
1979-07-06 07:12:06.190 ,0,0,0.,12.0,0.,12.0,0.,12.0,0.,12.0
1979-07-06 07:12:18.190 ,0,0,1.,12.0,0.,12.0,0.,12.0,0.,12.0
1979-07-06 07:12:30.190 ,0,0,0.,12.0,0.,12.0,0.,12.0,0.,12.0
1979-07-06 07:12:42.190 ,0,0,1.,12.0,0.,12.0,0.,12.0,0.,12.0
1979-07-06 07:12:54.190 ,1,0,1.,12.0,0.,12.0,0.,12.0,0.,12.0
1979-07-06 07:13:06.190 ,1,0,0.,12.0,0.,12.0,0.,12.0,0.,12.0
1979-07-06 07:13:18.190 ,1,0,0.,12.0,0.,12.0,0.,12.0,0.,12.0
1979-07-06 07:13:30.190 ,1,0,2.,12.0,0.,12.0,0.,12.0,0.,12.0
1979-07-06 07:13:42.190 ,0,0,2.,12.0,0.,12.0,0.,12.0,0.,12.0
1979-07-06 07:13:54.190 ,0,0,0.,12.0,0.,12.0,0.,12.0,0.,12.0
1979-07-06 07:14:06.190 ,0,0,,0,,0,,0,,0
1979-07-06 07:14:18.190 ,0,0,,0,,0,,0,,0
1979-07-06 07:14:28.390 ,0,0,,0,,0,,0,,0
1979-07-06 07:14:40.390 ,0,0,,0,,0,,0,,0
1979-07-06 07:14:28.990 ,0,0,,0,,0,,0,,0
1979-07-06 07:14:40.990 ,0,0,,0,,0,,0,,0
1979-07-06 07:14:30.190 ,0,0,,0,,0,,0,,0
1979-07-06 07:14:42.190 ,0,0,,0,,0,,0,,0
1979-07-06 07:14:54.190 ,0,0,,0,,0,,0,,0
1979-07-06 07:15:06.190 ,0,0,,0,,0,,0,,0
1979-07-06 07:14:54.190 ,0,0,1.,12.0,0.,12.0,0.,12.0,0.,12.0
1979-07-06 07:15:06.190 ,0,0,0.,12.0,0.,12.0,0.,12.0,0.,12.0
1979-07-06 07:15:18.190 ,4,0,1.,12.0,0.,12.0,0.,12.0,0.,12.0
1979-07-06 07:15:30.190 ,4,0,1.,12.0,0.,12.0,0.,12.0,0.,12.0
1979-07-06 07:15:42.190 ,4,0,0.,12.0,0.,12.0,0.,12.0,0.,12.0
1979-07-06 07:15:54.190 ,4,0,2.,12.0,0.,12.0,0.,12.0,0.,12.0
1979-07-06 07:16:06.190 ,5,0,0.,12.0,0.,12.0,0.,12.0,0.,12.0
1979-07-06 07:16:18.190 ,5,0,0.,12.0,0.,12.0,0.,12.0,0.,12.0
1979-07-06 07:16:30.190 ,5,0,3.,12.0,0.,12.0,0.,12.0,0.,12.0
1979-07-06 07:16:42.190 ,5,0,0.,12.0,0.,12.0,0.,12.0,0.,12.0
1979-07-06 07:16:54.190 ,6,0,1.,12.0,0.,12.0,0.,12.0,0.,12.0
1979-07-06 07:17:06.190 ,6,0,1.,12.0,0.,12.0,0.,12.0,0.,12.0
1979-07-06 07:17:18.190 ,6,0,2.,12.0,0.,12.0,0.,12.0,0.,12.0